Weather History for Needles, CA

Change the Weather History Date:

Saturday, July 20, 2013

  Actual Average Record
Temperature  
Mean Temperature 93 °F -  
Max Temperature 102 °F 108 °F 118 °F (1989)
Min Temperature 84 °F 83 °F 68 °F (1979)
Cooling Degree Days 28    
Growing Degree Days 43 (Base 50)    
Moisture  
Dew Point 65 °F    
Average Humidity 39    
Maximum Humidity 59    
Minimum Humidity 27    
Precipitation  
Precipitation 0.00 in - - ()
Sea Level Pressure  
Sea Level Pressure 29.67 in    
Wind  
Wind Speed 12 mph (SW)    
Max Wind Speed 23 mph    
Max Gust Speed 30 mph    
Visibility 10 miles    
Events Thunderstorm    
Averages and records for this station are not official NWS values.
T = Trace of Precipitation, MM = Missing Value Source: NWS Daily Summary

Daily Weather History Graph

Daily Weather History Graph

Search for Another Location

Airport:

Trip Planner

Search our weather history database for the weather conditions in past years. The results will help you decide how hot, cold, wet, or windy it might be!

Date:

Astronomy

Jul. 20, 2013 Rise Set
Actual Time 5:39 AM PDT 7:49 PM PDT
Civil Twilight 5:11 AM PDT 8:17 PM PDT
Nautical Twilight 4:36 AM PDT 8:52 PM PDT
Astronomical Twilight 3:58 AM PDT 9:30 PM PDT
Moon 5:57 PM PDT (7/20) 3:23 AM PDT (7/20)
Length of Visible Light 15h 06m
Length of Day
14h 09m
Waxing Gibbous, 94% of the Moon is Illuminated
Jul 20
Waxing Gibbous
Jul 22
Full
Jul 29
Last Quarter
Aug 6
New
Aug 14
First Quarter

Hourly Weather History & Observations

Time (PDT) Temp. Heat Index Dew Point Humidity Pressure Visibility Wind Dir Wind Speed Gust Speed Precip Events Conditions
12:56 AM 95.0 °F 93.4 °F 55.9 °F 27% 29.64 in 10.0 mi West 18.4 mph 25.3 mph N/A   Clear
1:56 AM 93.9 °F 93.2 °F 59.0 °F 31% 29.62 in 10.0 mi WSW 12.7 mph - N/A   Clear
2:56 AM 93.0 °F 92.7 °F 60.1 °F 33% 29.62 in 10.0 mi WSW 17.3 mph 26.5 mph N/A   Clear
3:56 AM 91.9 °F 91.8 °F 61.0 °F 35% 29.63 in 10.0 mi Calm Calm - N/A   Clear
4:56 AM 89.1 °F 92.1 °F 66.9 °F 48% 29.67 in 10.0 mi SW 19.6 mph 25.3 mph N/A   Clear
5:56 AM 84.0 °F 87.0 °F 68.0 °F 58% 29.70 in 10.0 mi SW 23.0 mph 29.9 mph N/A   Clear
6:56 AM 84.0 °F 87.0 °F 68.0 °F 58% 29.74 in 10.0 mi South 11.5 mph - N/A   Clear
7:56 AM 84.9 °F 88.2 °F 68.0 °F 57% 29.76 in 10.0 mi SW 11.5 mph - N/A   Clear
8:56 AM 84.9 °F 88.8 °F 69.1 °F 59% 29.75 in 10.0 mi SW 6.9 mph - 0.00 in   Scattered Clouds
9:56 AM 89.1 °F 92.9 °F 68.0 °F 50% 29.75 in 10.0 mi Calm Calm - N/A   Clear
10:56 AM 93.0 °F 95.0 °F 64.9 °F 39% 29.73 in 10.0 mi South 11.5 mph - N/A   Clear
11:56 AM 93.9 °F 96.1 °F 64.9 °F 38% 29.72 in 10.0 mi Variable 5.8 mph - N/A   Clear
12:56 PM 96.1 °F 97.3 °F 63.0 °F 33% 29.69 in 10.0 mi Variable 5.8 mph - N/A   Clear
1:56 PM 100.0 °F 101.8 °F 63.0 °F 29% 29.65 in 10.0 mi Variable 3.5 mph - N/A   Clear
2:56 PM 102.0 °F 104.6 °F 63.0 °F 28% 29.63 in 10.0 mi Variable 4.6 mph - N/A   Clear
3:56 PM 100.9 °F 104.0 °F 64.0 °F 30% 29.61 in 10.0 mi SSW 9.2 mph - N/A   Clear
4:56 PM 102.0 °F 105.2 °F 64.0 °F 29% 29.58 in 10.0 mi SSW 4.6 mph - N/A   Partly Cloudy
5:56 PM 100.9 °F 104.6 °F 64.9 °F 31% 29.58 in 10.0 mi SW 10.4 mph - N/A   Clear
6:56 PM 100.9 °F 103.3 °F 63.0 °F 29% 29.57 in 10.0 mi SW 12.7 mph - N/A   Clear
7:56 PM 98.1 °F 99.6 °F 63.0 °F 31% 29.58 in 10.0 mi SSW 16.1 mph - N/A   Clear
8:56 PM 97.0 °F 99.3 °F 64.0 °F 34% 29.61 in 10.0 mi SSW 11.5 mph - N/A   Clear
9:56 PM 96.1 °F 97.3 °F 63.0 °F 33% 29.64 in 10.0 mi SSW 12.7 mph - N/A Thunderstorm Partly Cloudy
10:16 PM 96.8 °F 98.0 °F 62.6 °F 32% 29.76 in 10.0 mi SSW 8.1 mph - N/A   Partly Cloudy
11:03 PM 89.6 °F 96.2 °F 71.6 °F 55% 29.79 in 10.0 mi NNE 6.9 mph - 0.00 in   Mostly Cloudy
11:56 PM 89.1 °F 97.0 °F 73.0 °F 59% 29.66 in 10.0 mi West 6.9 mph - 0.00 in   Mostly Cloudy